Home > Weather > Ramsey > Past weeks

Flag for Isle of Man Past Weather in Ramsey, Isle of Man — Yesterday and Last 2 Weeks

Now
57 °F

Partly sunny.


Feels Like: 55 °F
Forecast: 54 / 59 °F
Wind: 8 mph from Southwest

Location: Isle Of Man / Ronaldsway Airport

Current Time: Jun 28, 2016 at 2:32:15 PM

Latest Report: Jun 28, 2016 at 1:50 PM


Visibility: N/A

Pressure: 29.83 "Hg

Humidity: 88%

Dew Point: 54 °F

Location of RamseyLocation

Past Weather in Ramsey — Graph

°F

Ramsey Temperature Yesterday

Maximum temperature yesterday: 63 °F (at 1:50 PM)
Minimum temperature yesterday: 52 °F (at 11:50 PM)
Average temperature yesterday: 58 °F

High & Low Weather Summary for the Past Weeks

 TemperatureHumidityPressure
High64 °F (Jun 14, 5:50 PM)100% (Jun 14, 3:50 AM)30.18 "Hg (Jun 14, 3:50 AM)
Low48 °F (Jun 28, 2:50 AM)56% (Jun 18, 12:50 PM)29.36 "Hg (Jun 14, 3:50 PM)
Average58 °F83%29.85 "Hg
* Reported Jun 13 12:20 PM — Jun 28 12:50 PM, Ramsey, Weather by CustomWeather, © 2016

Note: Actual official high and low records may vary slightly from our data, if they occured in-between our weather recording intervals... More about our weather records

Advertising

Ramsey Weather History for the Previous 24 Hours

Scroll right to see more
 ConditionsComfort  
Time TempWeatherWind HumidityBarometerVisibility
12:50 PM
Tue, Jun 28
55 °FLight rain. Scattered clouds.6 mph94%29.83 "HgN/A
12:20 PM55 °FScattered clouds.7 mph88%29.86 "HgN/A
11:50 AM57 °FLight rain. Passing clouds.10 mph88%29.86 "HgN/A
11:20 AM57 °FPassing clouds.9 mph88%29.86 "HgN/A
10:50 AM57 °FPassing clouds.9 mph88%29.89 "HgN/A
10:20 AM55 °FLight rain. Passing clouds.7 mph88%29.89 "HgN/A
9:50 AM55 °FPassing clouds.6 mph88%29.92 "HgN/A
9:20 AM55 °FPassing clouds.3 mph88%29.92 "HgN/A
8:50 AM55 °FPassing clouds.2 mph88%29.92 "HgN/A
8:20 AM54 °FPassing clouds.1 mph94%29.92 "HgN/A
7:50 AM54 °FLight rain. Scattered clouds.5 mph94%29.92 "HgN/A
7:20 AM54 °FScattered clouds.1 mph94%29.95 "HgN/A
6:50 AM54 °FPassing clouds.1 mph88%29.95 "HgN/A
6:20 AM54 °FSunny.2 mph88%29.95 "Hg10 mi
5:50 AM50 °FSunny.3 mph88%29.98 "Hg10 mi
5:20 AM48 °FPassing clouds.3 mph87%29.98 "HgN/A
4:50 AM48 °FPassing clouds.5 mph87%29.98 "HgN/A
3:50 AM48 °FClear.5 mph87%30.01 "Hg10 mi
2:50 AM48 °FPassing clouds.3 mph87%30.01 "HgN/A
1:50 AM52 °FPassing clouds.5 mph82%30.01 "HgN/A
12:50 AM52 °FPassing clouds.6 mph82%30.04 "HgN/A
11:50 PM
Mon, Jun 27
52 °FPassing clouds.1 mph82%30.04 "HgN/A
10:50 PM54 °FPassing clouds.5 mph82%30.04 "HgN/A
9:50 PM57 °FPassing clouds.3 mph82%30.04 "HgN/A
9:20 PM57 °FPassing clouds.6 mph88%30.04 "HgN/A
8:50 PM57 °FScattered clouds.8 mph82%30.04 "HgN/A
8:20 PM57 °FPassing clouds.8 mph82%30.04 "HgN/A
7:50 PM57 °FPassing clouds.9 mph82%30.04 "HgN/A
7:20 PM59 °FPartly sunny.10 mph77%30.04 "HgN/A
6:50 PM59 °FPassing clouds.12 mph77%30.04 "HgN/A
6:20 PM59 °FPassing clouds.13 mph77%30.04 "HgN/A
5:50 PM59 °FPassing clouds.16 mph72%30.04 "HgN/A
5:20 PM59 °FPassing clouds.15 mph77%30.04 "HgN/A
4:50 PM61 °FPassing clouds.15 mph68%30.04 "HgN/A
4:20 PM63 °FPassing clouds.15 mph64%30.04 "HgN/A
3:50 PM63 °FPassing clouds.17 mph59%30.04 "HgN/A
3:20 PM63 °FPassing clouds.16 mph56%30.04 "HgN/A
2:50 PM63 °FPassing clouds.15 mph59%30.04 "HgN/A
2:20 PM63 °FPassing clouds.17 mph59%30.04 "HgN/A
Weather by CustomWeather, © 2016

See weather overviewHow to use our weather pages